Погода в Суре

Россия / Архангельская область     63°34′26″N   45°38′03″E
темп.,
°C
ветер,
м/с
пор.,
м/с
влажн.,
%
обл.,
%
осадки,
мм/ч
давл.,
гПа
погр.,
м
17 сентября, пт
пт1700:00+4ссз3791100 0.0 1015496
03:00+4ссз3898100 1.0 1015455
06:00+4с3895100 0.1 1016469
09:00+6ссв4887100 0.1 1017571
12:00+5ссв4775100 0.0 10191027
15:00+4ссв4773100 0.1 10211232
18:00+4с3868100 0.0 1022639
21:00+3ссз3873100 0.0 1023308
18 сентября, сб
сб1800:00+4ссз31080100 0.0 1023501
03:00+1с3119213 0.1 1024408
06:000ссз3119224 0.0 1025410
09:00+4с596183 0.0 10251344
12:00+6с4857100 0.0 10261573
15:00+6ссз4960100 0.0 10261641
18:00+4ссз4108426 0.1 1026849
21:00+1ссз299342 0.1 1027251
19 сентября, вс
вс1900:00+2ссз398183 0.0 1027373
03:00−1ссз289499 0.0 1028220
06:00+2с3869100 0.0 1028862
09:00+3с3868100 0.0 10291052
12:00+4с4767100 0.0 10301392
15:00+5с4769100 0.1 10301290
18:00+3с3872100 0.0 1030649
21:00+3с3774100 0.0 1031502
20 сентября, пн
пн2000:00+3с2675100 0.0 1032277
03:00+2с2679100 0.0 1033238
06:00+2ссв2675100 0.0 1034301
09:00+4св3564100 0.0 1034867
12:00+5св3458100 0.0 10351245
15:00+6св235414 0.0 10341131
18:00+3св11755 0.0 103410
21:00+1св11835 0.0 103410
21 сентября, вт
вт2100:000св11885 0.0 103410
03:000ссв119016 0.0 103410
06:00−1св11905 0.0 103310
09:00+5всв12645 0.0 1032354
12:00+9всв12515 0.0 1030803
15:00+9всв22505 0.0 1029910
18:00+4всв22775 0.0 102813
21:00+2в22875 0.0 102812